Location: Lesignano de� Bagni
(44.6500°N, 10.3000°E)
Time: 19:54:25
(UTC+00:00)

USA 234 - Pass Details

Date: 03 March 2021
Orbit: 1102 x 1105 km, 123.0° (Epoch: 18 April)

Event Time Altitude Azimuth Distance (km) Brightness Sun altitude
Exits shadow 17:52:37 - 58° (ENE) 3,450 5.3 -8.5°
Reaches altitude 10° 17:54:01 10° 63° (ENE) 2,965 5.0 -8.7°
Maximum altitude 17:59:59 37° 129° (SE) 1,652 3.8 -9.8°
Drops below altitude 10° 18:05:55 10° 195° (SSW) 2,952 5.7 -10.9°
Sets 18:08:37 0° 203° (SSW) 3,907 6.4 -11.3°
